BAW416 EGLL-ELLX

Flight info

Callsign BAW416
Flight time 0h 50m
Altitude 35000
Route DET L6 DVR UL9 KONAN UL607 REMBA
Aircraft A320/M-SDE3FGIJ1KRWXY/SB1

Departure

Time 2026-05-06 07:29
Airport London Heathrow Airport (EGLL)

Arrival

Time 2026-05-06 08:19
Airport Luxembourg-Findel International Airport (ELLX)
Time Latitude Longitude Altitude Speed Heading
2026-05-06 06:39 51.46899 -0.45938 86 ft 0 kts 56°
2026-05-06 07:18 51.46897 -0.45942 86 ft 3 kts 56°
2026-05-06 07:18 51.46883 -0.45976 88 ft 2 kts 55°
2026-05-06 07:19 51.46872 -0.46006 89 ft 4 kts 82°
2026-05-06 07:19 51.46877 -0.46040 89 ft 4 kts 143°
2026-05-06 07:19 51.46867 -0.46028 87 ft 4 kts 145°
2026-05-06 07:19 51.46857 -0.46018 88 ft 0 kts 145°
2026-05-06 07:23 51.46856 -0.46017 88 ft 1 kts 145°
2026-05-06 07:23 51.46843 -0.46003 89 ft 4 kts 145°
2026-05-06 07:23 51.46794 -0.45984 88 ft 9 kts 179°
2026-05-06 07:23 51.46722 -0.45982 86 ft 11 kts 179°
2026-05-06 07:24 51.46661 -0.46045 86 ft 12 kts 260°
2026-05-06 07:24 51.46660 -0.46194 90 ft 15 kts 270°
2026-05-06 07:24 51.46659 -0.46370 88 ft 17 kts 270°
2026-05-06 07:24 51.46659 -0.46555 90 ft 17 kts 270°
2026-05-06 07:25 51.46658 -0.46753 90 ft 19 kts 270°
2026-05-06 07:25 51.46657 -0.46967 90 ft 19 kts 270°
2026-05-06 07:25 51.46657 -0.47191 87 ft 20 kts 269°
2026-05-06 07:25 51.46656 -0.47390 86 ft 18 kts 270°
2026-05-06 07:26 51.46655 -0.47604 86 ft 19 kts 269°
2026-05-06 07:26 51.46654 -0.47798 86 ft 16 kts 270°
2026-05-06 07:26 51.46654 -0.47989 86 ft 16 kts 270°
2026-05-06 07:26 51.46653 -0.48136 86 ft 12 kts 269°
2026-05-06 07:27 51.46615 -0.48214 89 ft 10 kts 186°
2026-05-06 07:27 51.46541 -0.48212 88 ft 11 kts 179°
2026-05-06 07:27 51.46486 -0.48198 90 ft 7 kts 142°
2026-05-06 07:27 51.46479 -0.48127 88 ft 4 kts 88°
2026-05-06 07:28 51.46480 -0.48045 87 ft 31 kts 89°
2026-05-06 07:28 51.46482 -0.47311 87 ft 97 kts 90°
2026-05-06 07:28 51.46499 -0.44181 399 ft 156 kts 84°
2026-05-06 07:29 51.46497 -0.42447 1015 ft 157 kts 91°
2026-05-06 07:29 51.46043 -0.40870 1530 ft 164 kts 128°
2026-05-06 07:29 51.45378 -0.39399 2021 ft 161 kts 111°
2026-05-06 07:29 51.44837 -0.37814 2520 ft 163 kts 114°
2026-05-06 07:30 51.44264 -0.36236 3012 ft 164 kts 114°
2026-05-06 07:30 51.43724 -0.34607 3384 ft 170 kts 103°
2026-05-06 07:30 51.43419 -0.32690 3562 ft 190 kts 97°
2026-05-06 07:30 51.43106 -0.30496 3750 ft 214 kts 98°
2026-05-06 07:31 51.42753 -0.28038 4017 ft 239 kts 98°
2026-05-06 07:31 51.42373 -0.25314 4404 ft 260 kts 98°
2026-05-06 07:31 51.41976 -0.22418 5111 ft 270 kts 98°
2026-05-06 07:31 51.41565 -0.19446 5896 ft 275 kts 99°
2026-05-06 07:32 51.41146 -0.16411 6663 ft 281 kts 99°
2026-05-06 07:32 51.40721 -0.13320 7436 ft 285 kts 100°
2026-05-06 07:32 51.40291 -0.10211 8282 ft 287 kts 100°
2026-05-06 07:32 51.39855 -0.07073 9100 ft 290 kts 100°
2026-05-06 07:33 51.39421 -0.03940 9905 ft 292 kts 100°
2026-05-06 07:33 51.38973 -0.00705 10362 ft 307 kts 101°
2026-05-06 07:33 51.38494 0.02755 10533 ft 330 kts 101°
2026-05-06 07:33 51.37980 0.06439 10803 ft 346 kts 101°
2026-05-06 07:34 51.37444 0.10244 11391 ft 352 kts 101°
2026-05-06 07:34 51.36900 0.14082 12030 ft 355 kts 102°
2026-05-06 07:34 51.36351 0.17970 12666 ft 359 kts 102°
2026-05-06 07:34 51.35797 0.21904 13274 ft 364 kts 102°
2026-05-06 07:35 51.35238 0.25875 13917 ft 368 kts 102°
2026-05-06 07:35 51.34679 0.29830 14511 ft 370 kts 102°
2026-05-06 07:35 51.34105 0.33881 15035 ft 375 kts 102°
2026-05-06 07:35 51.33520 0.37992 15553 ft 379 kts 102°
2026-05-06 07:36 51.32932 0.42107 16118 ft 381 kts 102°
2026-05-06 07:36 51.32345 0.46203 16742 ft 385 kts 102°
2026-05-06 07:36 51.31741 0.50410 17279 ft 389 kts 102°
2026-05-06 07:36 51.31132 0.54640 17878 ft 391 kts 102°
2026-05-06 07:37 51.30521 0.58895 18474 ft 393 kts 102°
2026-05-06 07:37 51.29868 0.63113 18949 ft 397 kts 104°
2026-05-06 07:37 51.29121 0.67389 19453 ft 400 kts 106°
2026-05-06 07:37 51.28319 0.71669 20050 ft 402 kts 107°
2026-05-06 07:38 51.27494 0.75960 20575 ft 405 kts 107°
2026-05-06 07:38 51.26664 0.80273 21069 ft 408 kts 107°
2026-05-06 07:38 51.25838 0.84626 21567 ft 410 kts 107°
2026-05-06 07:38 51.25021 0.89005 22088 ft 411 kts 107°
2026-05-06 07:39 51.24218 0.93353 22547 ft 414 kts 108°
2026-05-06 07:39 51.23404 0.97781 22995 ft 417 kts 107°
2026-05-06 07:39 51.22583 1.02228 23518 ft 417 kts 107°
2026-05-06 07:39 51.21754 1.06685 23927 ft 419 kts 107°
2026-05-06 07:40 51.20928 1.11112 24293 ft 422 kts 108°
2026-05-06 07:40 51.20086 1.15615 24656 ft 424 kts 107°
2026-05-06 07:40 51.19236 1.20134 24904 ft 425 kts 107°
2026-05-06 07:40 51.18382 1.24656 24960 ft 425 kts 108°
2026-05-06 07:41 51.17528 1.29169 24962 ft 425 kts 108°
2026-05-06 07:41 51.16691 1.33632 24956 ft 425 kts 105°
2026-05-06 07:41 51.16145 1.38264 24954 ft 425 kts 96°
2026-05-06 07:41 51.15997 1.41380 24953 ft 426 kts 95°
2026-05-06 07:42 51.15787 1.46120 24952 ft 426 kts 94°
2026-05-06 07:42 51.15493 1.52355 24950 ft 426 kts 95°
2026-05-06 07:42 51.15337 1.55535 24950 ft 426 kts 95°
2026-05-06 07:42 51.15104 1.60240 24950 ft 426 kts 95°
2026-05-06 07:43 51.14869 1.64939 24948 ft 426 kts 95°
2026-05-06 07:43 51.14633 1.69651 24947 ft 426 kts 95°
2026-05-06 07:43 51.14397 1.74293 24941 ft 426 kts 95°
2026-05-06 07:43 51.14153 1.79011 24940 ft 426 kts 95°
2026-05-06 07:44 51.13912 1.83714 24941 ft 427 kts 95°
2026-05-06 07:44 51.13672 1.88449 25269 ft 429 kts 95°
2026-05-06 07:44 51.13432 1.93133 25664 ft 430 kts 95°
2026-05-06 07:44 51.13186 1.97894 26077 ft 431 kts 95°
2026-05-06 07:45 51.12938 2.02658 26448 ft 432 kts 95°
2026-05-06 07:45 51.12687 2.07444 26796 ft 434 kts 95°
2026-05-06 07:45 51.12435 2.12185 27138 ft 436 kts 95°
2026-05-06 07:45 51.12176 2.17007 27496 ft 437 kts 95°
2026-05-06 07:46 51.11913 2.21847 27844 ft 439 kts 95°
2026-05-06 07:46 51.11649 2.26694 28187 ft 441 kts 95°
2026-05-06 07:46 51.11381 2.31571 28509 ft 442 kts 95°
2026-05-06 07:46 51.11111 2.36453 28883 ft 443 kts 95°
2026-05-06 07:47 51.10839 2.41331 29384 ft 440 kts 96°
2026-05-06 07:47 51.10569 2.46120 29900 ft 438 kts 96°
2026-05-06 07:47 51.10296 2.50937 30331 ft 436 kts 95°
2026-05-06 07:47 51.10019 2.55747 30715 ft 435 kts 96°
2026-05-06 07:48 51.09742 2.60543 31111 ft 434 kts 96°
2026-05-06 07:48 51.09375 2.65302 31493 ft 434 kts 101°
2026-05-06 07:48 51.08623 2.69943 31862 ft 433 kts 106°
2026-05-06 07:48 51.07787 2.74542 32255 ft 432 kts 106°
2026-05-06 07:49 51.06960 2.79082 32640 ft 432 kts 106°
2026-05-06 07:49 51.06124 2.83678 33033 ft 432 kts 106°
2026-05-06 07:49 51.05293 2.88264 33444 ft 431 kts 105°
2026-05-06 07:49 51.04463 2.92834 33845 ft 430 kts 106°
2026-05-06 07:50 51.03627 2.97405 34144 ft 430 kts 106°
2026-05-06 07:50 51.02789 3.01969 34401 ft 430 kts 106°
2026-05-06 07:50 51.01950 3.06533 34670 ft 431 kts 107°
2026-05-06 07:50 51.01108 3.11107 34853 ft 432 kts 107°
2026-05-06 07:51 50.99408 3.20304 34902 ft 442 kts 107°
2026-05-06 07:51 50.97655 3.29724 34894 ft 445 kts 107°
2026-05-06 07:52 50.95887 3.39189 34891 ft 449 kts 107°
2026-05-06 07:52 50.94107 3.48648 34884 ft 449 kts 107°
2026-05-06 07:53 50.92311 3.58138 34887 ft 450 kts 107°
2026-05-06 07:53 50.90508 3.67627 34888 ft 450 kts 107°
2026-05-06 07:54 50.88691 3.77062 34893 ft 450 kts 108°
2026-05-06 07:54 50.86856 3.86535 34891 ft 449 kts 108°
2026-05-06 07:55 50.85016 3.96002 34892 ft 449 kts 108°
2026-05-06 07:55 50.83180 4.05405 34893 ft 449 kts 107°
2026-05-06 07:56 50.81330 4.14847 34878 ft 448 kts 109°
2026-05-06 07:56 50.79490 4.24195 34879 ft 448 kts 108°
2026-05-06 07:57 50.77613 4.33612 34871 ft 448 kts 108°
2026-05-06 07:57 50.75739 4.42973 34870 ft 448 kts 108°
2026-05-06 07:58 50.74798 4.47678 34725 ft 449 kts 108°
2026-05-06 07:58 50.73852 4.52367 34661 ft 447 kts 109°
2026-05-06 07:58 50.72899 4.57045 34194 ft 448 kts 108°
2026-05-06 07:58 50.71960 4.61725 33618 ft 447 kts 108°
2026-05-06 07:59 50.71048 4.66399 32984 ft 445 kts 107°
2026-05-06 07:59 50.70151 4.71076 32348 ft 444 kts 108°
2026-05-06 07:59 50.69269 4.75696 31700 ft 443 kts 107°
2026-05-06 07:59 50.68379 4.80330 31051 ft 440 kts 107°
2026-05-06 08:00 50.67484 4.84942 30417 ft 437 kts 108°
2026-05-06 08:00 50.66314 4.89360 29765 ft 435 kts 118°
2026-05-06 08:00 50.64691 4.93375 29041 ft 433 kts 127°
2026-05-06 08:00 50.62710 4.96840 28348 ft 430 kts 135°
2026-05-06 08:01 50.60565 5.00136 27663 ft 428 kts 135°
2026-05-06 08:01 50.58449 5.03408 26984 ft 425 kts 135°
2026-05-06 08:01 50.56346 5.06669 26329 ft 424 kts 135°
2026-05-06 08:01 50.54253 5.09917 25690 ft 422 kts 135°
2026-05-06 08:02 50.52157 5.13160 25081 ft 420 kts 135°
2026-05-06 08:02 50.50079 5.16371 24595 ft 416 kts 135°
2026-05-06 08:02 50.48048 5.19506 24099 ft 413 kts 135°
2026-05-06 08:02 50.46008 5.22647 23630 ft 409 kts 135°
2026-05-06 08:03 50.43981 5.25760 23120 ft 406 kts 135°
2026-05-06 08:03 50.41966 5.28852 22654 ft 402 kts 135°
2026-05-06 08:03 50.39975 5.31904 22206 ft 399 kts 136°
2026-05-06 08:03 50.37993 5.34936 21749 ft 396 kts 136°
2026-05-06 08:04 50.36050 5.37901 21306 ft 394 kts 136°
2026-05-06 08:04 50.34087 5.40896 20839 ft 394 kts 136°
2026-05-06 08:04 50.32119 5.43892 20374 ft 394 kts 136°
2026-05-06 08:04 50.30149 5.46886 19890 ft 394 kts 136°
2026-05-06 08:05 50.28177 5.49880 19405 ft 394 kts 137°
2026-05-06 08:05 50.26216 5.52856 18897 ft 391 kts 137°
2026-05-06 08:05 50.24269 5.55808 18410 ft 389 kts 137°
2026-05-06 08:05 50.22328 5.58748 17879 ft 388 kts 137°
2026-05-06 08:06 50.20435 5.61614 17356 ft 378 kts 137°
2026-05-06 08:06 50.18578 5.64429 16876 ft 368 kts 137°
2026-05-06 08:06 50.16742 5.67209 16398 ft 365 kts 137°
2026-05-06 08:06 50.14922 5.69958 15922 ft 363 kts 137°
2026-05-06 08:07 50.13106 5.72692 15434 ft 361 kts 137°
2026-05-06 08:07 50.11297 5.75408 14958 ft 359 kts 137°
2026-05-06 08:07 50.09519 5.78073 14488 ft 358 kts 137°
2026-05-06 08:07 50.07729 5.80760 14004 ft 357 kts 137°
2026-05-06 08:08 50.05940 5.83440 13500 ft 357 kts 137°
2026-05-06 08:08 50.04151 5.86118 12969 ft 355 kts 138°
2026-05-06 08:08 50.02379 5.88772 12488 ft 352 kts 137°
2026-05-06 08:08 50.00617 5.91414 12004 ft 350 kts 138°
2026-05-06 08:09 49.98866 5.94037 11503 ft 347 kts 138°
2026-05-06 08:09 49.97160 5.96590 11044 ft 338 kts 138°
2026-05-06 08:09 49.95503 5.99063 10600 ft 324 kts 138°
2026-05-06 08:09 49.93906 6.01439 10213 ft 310 kts 138°
2026-05-06 08:10 49.92385 6.03698 9996 ft 293 kts 138°
2026-05-06 08:10 49.90943 6.05838 9723 ft 281 kts 138°
2026-05-06 08:10 49.89539 6.07923 9580 ft 280 kts 138°
2026-05-06 08:10 49.88126 6.10014 9446 ft 280 kts 138°
2026-05-06 08:11 49.86747 6.12136 9213 ft 282 kts 132°
2026-05-06 08:11 49.85652 6.14658 8771 ft 288 kts 117°
2026-05-06 08:11 49.84842 6.17510 8348 ft 287 kts 115°
2026-05-06 08:11 49.84051 6.20334 7927 ft 283 kts 115°
2026-05-06 08:12 49.83270 6.23097 7516 ft 276 kts 115°
2026-05-06 08:12 49.82507 6.25785 7123 ft 270 kts 115°
2026-05-06 08:12 49.81759 6.28413 6724 ft 264 kts 116°
2026-05-06 08:12 49.81033 6.30965 6351 ft 259 kts 116°
2026-05-06 08:13 49.80317 6.33481 5983 ft 253 kts 116°
2026-05-06 08:13 49.79613 6.35953 5592 ft 247 kts 116°
2026-05-06 08:13 49.78765 6.38190 5278 ft 235 kts 133°
2026-05-06 08:13 49.77611 6.39844 4972 ft 220 kts 149°
2026-05-06 08:14 49.76316 6.41013 4633 ft 210 kts 155°
2026-05-06 08:14 49.75082 6.42098 4392 ft 196 kts 154°
2026-05-06 08:14 49.73942 6.43104 4201 ft 187 kts 155°
2026-05-06 08:14 49.72745 6.43812 4141 ft 184 kts 177°
2026-05-06 08:15 49.71505 6.43553 4094 ft 179 kts 205°
2026-05-06 08:15 49.70522 6.42403 3952 ft 178 kts 232°
2026-05-06 08:15 49.69886 6.40766 3756 ft 177 kts 239°
2026-05-06 08:15 49.69281 6.39111 3524 ft 175 kts 239°
2026-05-06 08:16 49.68686 6.37489 3297 ft 172 kts 239°
2026-05-06 08:16 49.68108 6.35919 3076 ft 167 kts 239°
2026-05-06 08:16 49.67546 6.34397 2859 ft 160 kts 239°
2026-05-06 08:16 49.67011 6.32948 2655 ft 147 kts 239°
2026-05-06 08:17 49.66519 6.31617 2457 ft 140 kts 238°
2026-05-06 08:17 49.66029 6.30316 2268 ft 139 kts 241°
2026-05-06 08:17 49.65562 6.29034 2070 ft 137 kts 241°
2026-05-06 08:17 49.65095 6.27767 1829 ft 137 kts 243°
2026-05-06 08:18 49.64616 6.26477 1641 ft 139 kts 243°
2026-05-06 08:18 49.64130 6.25173 1469 ft 142 kts 243°
2026-05-06 08:18 49.63638 6.23831 1292 ft 144 kts 244°
2026-05-06 08:18 49.63164 6.22545 1213 ft 126 kts 240°
2026-05-06 08:19 49.62864 6.21748 1216 ft 54 kts 240°
2026-05-06 08:19 49.62700 6.21299 1232 ft 41 kts 242°
2026-05-06 08:19 49.62647 6.20939 1240 ft 26 kts 271°
2026-05-06 08:19 49.62690 6.20745 1242 ft 16 kts 334°
2026-05-06 08:20 49.62786 6.20766 1247 ft 13 kts 25°
2026-05-06 08:20 49.62837 6.20872 1249 ft 13 kts 64°
2026-05-06 08:20 49.62878 6.21005 1233 ft 14 kts 64°
2026-05-06 08:20 49.62916 6.21128 1233 ft 11 kts 65°
2026-05-06 08:21 49.62948 6.21230 1232 ft 12 kts 64°
2026-05-06 08:21 49.62988 6.21361 1229 ft 15 kts 64°
2026-05-06 08:21 49.63032 6.21501 1227 ft 14 kts 64°
2026-05-06 08:21 49.63072 6.21631 1226 ft 13 kts 64°
2026-05-06 08:22 49.63109 6.21747 1226 ft 11 kts 64°
2026-05-06 08:22 49.63136 6.21837 1226 ft 9 kts 64°
2026-05-06 08:22 49.63165 6.21931 1227 ft 9 kts 65°
2026-05-06 08:22 49.63190 6.22011 1228 ft 9 kts 64°
2026-05-06 08:23 49.63218 6.22099 1228 ft 8 kts 56°
2026-05-06 08:23 49.63281 6.22106 1228 ft 10 kts 323°
2026-05-06 08:23 49.63324 6.22040 1230 ft 9 kts 315°
2026-05-06 08:23 49.63357 6.21964 1230 ft 8 kts 279°
2026-05-06 08:24 49.63360 6.21899 1230 ft 4 kts 301°
2026-05-06 08:24 49.63384 6.21874 1230 ft 5 kts 329°
2026-05-06 08:24 49.63407 6.21854 1230 ft 3 kts 330°
2026-05-06 08:24 49.63418 6.21843 1230 ft 0 kts 330°